{"data":{"norad_id":68366,"intl_designator":"2026-061G","name":"RASSVET-3 7","alt_names":[],"object_type":"PAYLOAD","status":"ACTIVE","operator":null,"country":"CIS","launch_date":"2026-03-23","launch_site_code":"PLMSC","launch_vehicle":null,"mission":null,"orbit_class":"UNKNOWN","rcs_meters":null,"size_class":null,"mass_kg":null,"dimensions":null,"purposes":[],"wikipedia_slug":null,"has_3d_model":false,"image_url":null,"decayed_at":null,"tle_current":{"epoch":"2026-05-25T05:00:47.122272Z","epoch_age_seconds":63779,"freshness":"FRESH","line1":"1 68366U 26061G   26145.20887873  .00043006  00000+0  41291-3 0  9997","line2":"2 68366  82.2971  38.3299 0003230 174.3474 185.7822 15.66414975  9901","mean_motion":15.66414975,"eccentricity":0.000323,"inclination_deg":82.2971,"raan_deg":38.3299,"arg_perigee_deg":174.3474,"mean_anomaly_deg":185.7822,"bstar":0.00041291,"rev_number":990,"period_min":91.929662508493,"perigee_km":366.99299469609,"apogee_km":371.35175655274,"semimajor_km":6747.3093756244,"source":"CELESTRAK","updated_at":"2026-05-25T13:38:07.765291Z"}}}